Lid_Strength_Index
1 1 0 0 1 1 1 1 1 2 2 2 2 2 2 3 3 4 4 5 5 5 5 4 4 4 4 7 7 3 1 2 3 4 7 8 9 9 10 9 9 10 10 9 9 9 9
2 1 2 0 1 1 1 2 2 2 2 2 3 2 3 3 3 4 4 5 5 5 5 5 5 4 5 8 5 5 4 3 4 5 6 7 8 8 9 9 9 9 9 9 9 9 9
2 1 1 1 1 1 2 1 1 2 2 2 2 3 3 3 3 3 5 5 5 5 5 5 4 5 6 5 4 4 5 5 4 5 6 5 6 7 8 9 8 9 11 9 9 9 10
1 0 -0 1 2 1 2 2 2 2 2 2 2 2 3 3 4 4 4 5 5 5 5 4 4 5 7 4 4 5 5 5 4 5 5 5 5 7 8 7 8 10 9 12 8 9 9
-0 -0 0 -0 -0 1 -0 0 1 1 1 2 2 2 3 4 4 5 5 5 5 6 4 5 4 5 6 5 6 4 4 6 5 5 5 5 6 8 8 10 11 10 12 11 10 8 9
0 -0 -0 -1 -0 -1 -0 -0 -0 -0 1 2 2 2 3 4 5 5 5 6 6 5 4 3 4 7 6 8 5 5 3 5 6 6 7 7 8 9 9 11 14 12 11 10 11 9 9
1 1 1 -1 -0 -0 -1 -1 -0 0 0 0 1 2 2 4 5 6 7 8 8 6 5 6 5 6 6 5 4 6 3 5 6 7 10 8 10 11 10 9 9 10 11 12 10 9 10
1 2 2 1 0 -0 -1 -1 -0 0 0 -0 1 2 2 3 5 5 6 10 7 7 6 5 6 6 6 6 8 6 5 8 8 10 9 9 12 9 9 9 10 11 12 12 10 9 10
2 1 1 2 1 1 0 -0 0 0 0 1 1 1 3 4 5 6 7 8 4 5 7 6 5 6 6 6 8 8 6 8 9 10 10 11 10 9 11 11 11 12 12 12 12 10 10
3 3 2 2 1 1 1 0 0 0 1 1 1 2 3 4 7 7 9 5 4 4 10 8 10 9 8 7 9 6 6 7 9 11 10 10 9 10 11 12 11 13 10 11 12 13 15
3 3 3 2 2 2 1 1 1 -0 -0 1 1 3 4 3 7 9 6 4 4 4 18 8 10 6 7 9 9 9 7 8 11 10 10 11 10 11 12 11 10 11 9 11 11 13 13
2 2 2 2 2 2 1 1 1 1 -0 0 2 3 3 5 6 6 5 4 5 12 17 10 9 10 10 9 9 8 9 7 7 9 9 9 8 9 10 9 10 9 11 11 12 13 17
2 1 1 1 1 1 1 1 1 0 -0 0 2 3 3 2 6 4 3 6 13 16 8 10 11 9 9 10 10 9 9 10 10 12 12 10 10 9 10 11 9 10 12 16 16 15 16
1 1 1 1 1 1 0 -0 -0 -0 0 1 2 3 3 4 3 3 5 10 17 10 9 9 9 9 10 9 9 10 10 11 9 10 12 14 15 10 9 11 11 11 11 15 19 17 14
1 1 1 1 1 0 0 -0 -1 -1 -0 1 3 6 6 4 4 4 8 14 12 10 7 9 9 11 10 10 10 10 10 10 9 8 13 14 14 10 10 9 10 12 13 10 14 14 16
1 1 1 1 1 0 -0 -1 -1 -1 -0 2 6 7 7 4 3 6 11 13 10 6 8 7 11 9 10 9 11 10 10 9 10 9 10 12 15 11 11 10 10 11 9 14 13 18 18
2 1 1 1 1 0 -0 -1 -1 -1 -0 2 5 9 7 4 4 9 12 10 8 6 6 7 8 9 9 9 10 10 11 10 10 10 9 10 12 13 12 13 13 11 12 11 11 12 17
2 2 1 1 1 0 0 -1 -1 -1 0 2 7 12 6 4 11 10 10 8 6 8 7 7 8 8 10 10 11 11 11 11 9 9 12 10 12 15 13 10 8 9 10 10 14 14 13
1 1 1 1 1 1 0 -0 -1 -1 1 4 10 11 6 6 12 10 7 7 7 8 8 9 9 8 9 10 12 11 11 9 9 10 11 10 13 16 13 10 8 10 9 9 9 11 15
1 1 1 1 1 1 0 0 -1 -1 0 4 9 13 10 10 9 8 9 9 8 6 8 8 8 9 10 11 9 11 11 10 9 9 9 8 11 12 14 13 10 12 10 9 10 14 13
1 1 1 1 1 1 0 -0 -1 -1 -0 2 7 9 7 13 12 9 8 8 9 10 8 8 9 9 11 12 11 12 11 11 9 8 8 9 12 11 11 11 10 10 11 11 13 12 15
-0 0 1 1 0 0 0 0 -0 -0 0 3 8 7 6 6 9 9 8 9 9 10 9 9 10 10 10 11 11 12 11 10 11 8 9 7 12 11 13 10 10 13 11 11 12 12 14
0 0 0 0 0 -0 -0 -0 -0 -0 0 4 3 3 5 7 8 9 9 8 8 8 8 9 10 10 10 9 9 8 7 7 7 8 9 9 11 13 15 11 12 15 13 12 13 13 13
1 1 0 0 0 -0 -0 -0 -0 -0 0 4 2 3 7 10 8 8 7 7 8 8 10 9 8 9 8 6 6 6 6 6 6 7 6 11 12 12 14 13 19 13 11 11 13 13 12
2 1 0 1 -0 -0 -0 -0 -0 -0 -0 2 2 4 6 9 7 8 7 8 8 8 9 8 8 7 5 7 9 10 11 11 9 8 8 8 11 14 15 15 14 14 13 13 14 15 12
3 3 1 1 0 0 0 0 0 -0 -0 2 4 2 4 7 8 6 8 8 11 10 10 9 6 5 5 8 9 14 15 12 13 11 7 9 9 13 13 16 18 12 11 9 10 15 12
1 2 1 0 1 0 0 0 0 0 1 3 4 2 4 7 7 7 9 9 7 9 10 9 8 8 5 8 12 13 13 9 14 14 13 13 13 14 14 15 13 11 11 10 15 15 11
1 2 1 1 1 1 0 0 1 1 1 3 4 2 4 6 7 6 6 7 8 8 10 8 9 8 8 10 11 10 11 10 11 10 12 12 14 14 13 15 17 11 11 13 12 11 11
2 1 1 1 1 2 2 2 2 2 2 2 5 2 2 6 7 4 5 5 5 6 7 6 7 6 6 8 8 8 10 10 11 13 8 13 10 13 12 14 12 11 11 10 10 11 11